Sanford, ME

4:39 AM EDT on June 26, 2017 (GMT -0400)
Sanford Regional

Weather History for KSFM - April, 2013

Change the Weather History Date:

Monday, April 1, 2013

  Actual Average Record
Temperature  
Mean Temperature 45 °F -  
Max Temperature 57 °F 46 °F 73 °F (2006)
Min Temperature 33 °F 28 °F 14 °F (2015)
Degree Days  
Heating Degree Days 20    
Moisture  
Dew Point 32 °F    
Average Humidity 67    
Maximum Humidity 93    
Minimum Humidity 30    
Precipitation  
Precipitation 0.27 in - - ()
Sea Level Pressure  
Sea Level Pressure 29.61 in    
Wind  
Wind Speed 10 mph (WNW)    
Max Wind Speed 20 mph    
Max Gust Speed 37 mph    
Visibility 9 miles    
Events      
Averages and records for this station are not official NWS values.
T = Trace of Precipitation, MM = Missing Value Source: NWS Daily Summary

Daily Weather History Graph

Daily Weather History Graph

Search for Another Location

Airport or City:

Trip Planner

Search our weather history database for the weather conditions in past years. The results will help you decide how hot, cold, wet, or windy it might be!

Date:

Astronomy

Apr. 01, 2013 Rise Set
Actual Time 6:24 AM EDT 7:09 PM EDT
Civil Twilight 5:55 AM EDT 7:38 PM EDT
Nautical Twilight 5:21 AM EDT 8:12 PM EDT
Astronomical Twilight 4:45 AM EDT 8:48 PM EDT
Moon 12:22 AM EDT (4/1) 10:00 AM EDT (4/1)
Length of Visible Light 13h 43m
Length of Day
12h 45m
Waning Gibbous, 67% of the Moon is Illuminated
Apr 1
Waning Gibbous
Apr 3
Last Quarter
Apr 10
New
Apr 18
First Quarter
Apr 25
Full

Hourly Weather History & Observations

Time (EDT) Temp. Windchill Dew Point Humidity Pressure Visibility Wind Dir Wind Speed Gust Speed Precip Events Conditions
12:15 AM 42.8 °F 38.0 °F 33.8 °F 70% 29.79 in 10.0 mi SE 8.1 mph - N/A   Overcast
12:35 AM 42.8 °F 37.5 °F 33.8 °F 70% 29.79 in 8.0 mi South 9.2 mph 18.4 mph 0.01 in   Overcast
12:55 AM 41.0 °F 38.0 °F 37.4 °F 87% 29.79 in 8.0 mi SSE 4.6 mph - 0.03 in   Overcast
1:15 AM 41.0 °F - 37.4 °F 87% 29.78 in 5.0 mi Calm Calm - 0.02 in   Overcast
1:35 AM 39.2 °F 37.0 °F 35.6 °F 87% 29.77 in 7.0 mi NNE 3.5 mph - 0.06 in   Overcast
2:15 AM 41.0 °F 36.4 °F 37.4 °F 87% 29.73 in 7.0 mi ENE 6.9 mph - N/A   Overcast
2:35 AM 41.0 °F 36.4 °F 37.4 °F 87% 29.71 in 7.0 mi ENE 6.9 mph - N/A   Overcast
3:15 AM 41.0 °F 34.7 °F 37.4 °F 87% 29.67 in 7.0 mi NNE 10.4 mph - N/A   Overcast
3:35 AM 41.0 °F 33.1 °F 37.4 °F 87% 29.63 in 7.0 mi NNE 15.0 mph - N/A   Overcast
3:55 AM 41.0 °F 34.3 °F 37.4 °F 87% 29.62 in 8.0 mi NE 11.5 mph 17.3 mph 0.09 in   Overcast
4:15 AM 41.0 °F 34.3 °F 37.4 °F 87% 29.61 in 7.0 mi NE 11.5 mph - 0.03 in   Overcast
4:35 AM 41.0 °F 36.4 °F 37.4 °F 87% 29.59 in 4.0 mi NE 6.9 mph - 0.03 in   Overcast
5:15 AM 41.0 °F 35.2 °F 37.4 °F 87% 29.58 in 3.0 mi NNE 9.2 mph - N/A   Overcast
5:35 AM 41.0 °F 34.3 °F 37.4 °F 87% 29.56 in 4.0 mi North 11.5 mph - N/A   Overcast
6:15 AM 39.2 °F 33.6 °F 37.4 °F 93% 29.57 in 4.0 mi NNW 8.1 mph - N/A   Overcast
6:35 AM 39.2 °F 32.0 °F 37.4 °F 93% 29.56 in 4.0 mi North 11.5 mph - N/A   Overcast
6:55 AM 39.2 °F 33.0 °F 37.4 °F 93% 29.57 in 4.0 mi NNW 9.2 mph - N/A   Overcast
7:15 AM 39.2 °F 33.6 °F 37.4 °F 93% 29.58 in 3.0 mi NW 8.1 mph - N/A   Overcast
7:35 AM 39.2 °F 32.5 °F 35.6 °F 87% 29.58 in 7.0 mi WNW 10.4 mph - N/A   Overcast
7:55 AM 39.2 °F 32.5 °F 35.6 °F 87% 29.58 in 10.0 mi NW 10.4 mph 16.1 mph N/A   Overcast
8:15 AM 39.2 °F 31.6 °F 35.6 °F 87% 29.59 in 10.0 mi WNW 12.7 mph - N/A   Overcast
8:35 AM 39.2 °F 32.5 °F 35.6 °F 87% 29.58 in 10.0 mi NW 10.4 mph 17.3 mph N/A   Overcast
8:55 AM 39.2 °F 33.0 °F 35.6 °F 87% 29.58 in 10.0 mi WNW 9.2 mph - N/A   Overcast
9:15 AM 42.8 °F 36.2 °F 35.6 °F 76% 29.58 in 10.0 mi WNW 12.7 mph 17.3 mph N/A   Overcast
9:35 AM 42.8 °F 36.2 °F 35.6 °F 76% 29.58 in 10.0 mi WNW 12.7 mph - N/A   Overcast
9:55 AM 42.8 °F 38.6 °F 37.4 °F 81% 29.58 in 10.0 mi NW 6.9 mph - N/A   Overcast
10:15 AM 44.6 °F 39.2 °F 37.4 °F 76% 29.58 in 10.0 mi WNW 10.4 mph - N/A   Mostly Cloudy
10:35 AM 46.4 °F 41.9 °F 37.4 °F 71% 29.58 in 10.0 mi West 9.2 mph - N/A   Scattered Clouds
10:55 AM 46.4 °F 41.9 °F 37.4 °F 71% 29.58 in 10.0 mi West 9.2 mph - N/A   Mostly Cloudy
11:15 AM 50.0 °F - 37.4 °F 62% 29.57 in 10.0 mi WSW 11.5 mph 16.1 mph N/A   Overcast
11:35 AM 51.8 °F - 37.4 °F 58% 29.57 in 10.0 mi SW 8.1 mph - N/A   Scattered Clouds
12:15 PM 53.6 °F - 37.4 °F 54% 29.55 in 10.0 mi SW 11.5 mph - N/A   Mostly Cloudy
12:35 PM 55.4 °F - 37.4 °F 51% 29.54 in 10.0 mi West 13.8 mph - N/A   Partly Cloudy
1:15 PM 57.2 °F - 37.4 °F 48% 29.53 in 10.0 mi SW 16.1 mph 19.6 mph N/A   Partly Cloudy
1:35 PM 57.2 °F - 37.4 °F 48% 29.53 in 10.0 mi SW 11.5 mph - N/A   Partly Cloudy
1:55 PM 57.2 °F - 35.6 °F 44% 29.52 in 10.0 mi WSW 12.7 mph 18.4 mph N/A   Mostly Cloudy
2:15 PM 57.2 °F - 35.6 °F 44% 29.51 in 10.0 mi SSW 9.2 mph - N/A   Overcast
2:35 PM 57.2 °F - 35.6 °F 44% 29.51 in 10.0 mi WSW 10.4 mph 17.3 mph N/A   Overcast
2:55 PM 55.4 °F - 35.6 °F 47% 29.50 in 10.0 mi SSW 6.9 mph - N/A   Overcast
3:15 PM 57.2 °F - 35.6 °F 44% 29.49 in 10.0 mi SSW 10.4 mph - N/A   Mostly Cloudy
4:15 PM 48.2 °F - 37.4 °F 66% 29.52 in 6.0 mi West 15.0 mph 29.9 mph 0.03 in   Mostly Cloudy
4:35 PM 46.4 °F 40.4 °F 39.2 °F 76% 29.53 in 8.0 mi West 13.8 mph 25.3 mph 0.05 in   Overcast
4:55 PM 44.6 °F 40.2 °F 39.2 °F 81% 29.53 in 10.0 mi West 8.1 mph - 0.06 in   Overcast
5:15 PM 46.4 °F 42.9 °F 39.2 °F 76% 29.52 in 10.0 mi West 6.9 mph - N/A   Overcast
5:35 PM 46.4 °F 41.5 °F 37.4 °F 71% 29.53 in 10.0 mi West 10.4 mph 17.3 mph N/A   Overcast
5:55 PM 46.4 °F 39.0 °F 35.6 °F 66% 29.54 in 10.0 mi West 19.6 mph 26.5 mph N/A   Overcast
6:15 PM 44.6 °F 37.4 °F 33.8 °F 66% 29.55 in 10.0 mi West 16.1 mph 23.0 mph N/A   Overcast
6:35 PM 44.6 °F 37.8 °F 35.6 °F 71% 29.56 in 10.0 mi WNW 15.0 mph 23.0 mph N/A   Mostly Cloudy
7:15 PM 42.8 °F 34.5 °F 28.4 °F 57% 29.59 in 10.0 mi West 18.4 mph 26.5 mph N/A   Mostly Cloudy
7:35 PM 41.0 °F 33.5 °F 28.4 °F 61% 29.61 in 10.0 mi WNW 13.8 mph 26.5 mph N/A   Mostly Cloudy
7:55 PM 39.2 °F 29.6 °F 21.2 °F 49% 29.63 in 10.0 mi WNW 19.6 mph 36.8 mph N/A   Mostly Cloudy
8:35 PM 39.2 °F 29.8 °F 15.8 °F 39% 29.65 in 10.0 mi West 18.4 mph 25.3 mph N/A   Clear
8:55 PM 37.4 °F 29.8 °F 15.8 °F 41% 29.65 in 10.0 mi West 11.5 mph 20.7 mph N/A   Clear
9:15 PM 37.4 °F 27.5 °F 12.2 °F 36% 29.65 in 10.0 mi West 18.4 mph 28.8 mph N/A   Clear
9:35 PM 37.4 °F 27.2 °F 10.4 °F 33% 29.67 in 10.0 mi WNW 19.6 mph 27.6 mph N/A   Clear
9:55 PM 37.4 °F 28.2 °F 8.6 °F 30% 29.68 in 10.0 mi WNW 16.1 mph 26.5 mph N/A   Clear
10:15 PM 35.6 °F 25.9 °F 10.4 °F 35% 29.69 in 10.0 mi WNW 16.1 mph 21.9 mph N/A   Clear
10:35 PM - - - N/A% 29.69 in 10.0 mi West 11.5 mph - N/A   Clear
10:55 PM 33.8 °F 22.5 °F 10.4 °F 38% 29.70 in 10.0 mi West 19.6 mph 25.3 mph N/A   Clear
11:15 PM 33.8 °F 25.3 °F 10.4 °F 38% 29.71 in 10.0 mi WNW 11.5 mph 23.0 mph N/A   Clear
11:35 PM 33.8 °F 22.8 °F 12.2 °F 41% 29.71 in 10.0 mi West 18.4 mph 26.5 mph N/A   Clear
11:55 PM 33.8 °F 24.3 °F 12.2 °F 41% 29.72 in 10.0 mi West 13.8 mph 23.0 mph N/A   Clear